765  
ASUS41 KAKQ 010415  
RWRAKQ  
 
REGIONAL WEATHER ROUNDUP  
NATIONAL WEATHER SERVICE WAKEFIELD VA  
1200 AM EDT MON MAY 01 2017  
 
NOTE: "FAIR" INDICATES FEW OR NO CLOUDS BELOW 12,000 FEET WITH NO  
SIGNIFICANT WEATHER AND/OR S TO VISIBILITY
. * = DENOTES  
STATION MAY NOT REPORT PRECIPITATION (E.G., RAIN,SNOW,ETC.),
 
THUNDER OR FOG.  
 
VAZ042-051-052>054-056-010500-  
NORTHERN VIRGINIA  
 
CITY SKY/WX TMP DP RH WIND PRES REMARKS
 
WASH NATIONAL PTCLDY 68 64 87 NE12 30.03S  
DULLES PTCLDY 73 62 68 SE6 30.01S  
FORT BELVOIR CLEAR 68 64 88 SE3 30.01S  
QUANTICO CLEAR 76 68 76 SW14 30.02S  
FREDERICKSBRG* CLEAR 75 65 71 S8 30.02S  
STAFFORD* CLEAR 74 64 71 S6 30.05F  
WARRENTON CLEAR 74 61 63 S5 30.01S  
CULPEPER* CLEAR 74 65 72 S6 30.01F  
MANASSAS* N/A 73 64 73 S8 30.01S  
LEESBURG* CLEAR 77 64 65 SE6 30.02S  
WINCHESTER CLEAR 68 59 73 S5 29.98S  
FRONT ROYAL* CLEAR 72 61 68 S3 29.97F  
LURAY* CLEAR 72 63 73 SW7 30.00F  

 
 
VAZ048-049-060>072-079>083-010500-  
CENTRAL AND SOUTH CENTRAL VIRGINIA  
 
CITY SKY/WX TMP DP RH WIND PRES REMARKS
 
RICHMOND PTCLDY 74 67 78 S9 30.05S  
CHESTERFIELD* FAIR N/A N/A N/A S6 30.06F  
PETERSBURG* CLEAR 73 65 78 CALM 30.07S  
HANOVER PTCLDY 77 65 66 S9 30.05F  
TAPPAHANNOCK* PTCLDY 76 62 62 S5 30.06R  
QUINTON* MOCLDY 77 68 74 S7 30.05F  
CHARLOTTSVILLE CLEAR 74 64 71 S10 30.02S  
GORDONSVILLE* PTCLDY 71 65 81 SW8 30.02S  
ORANGE* CLEAR 72 63 73 SW9 30.02S  
LOUISA* PTCLDY 75 66 73 S3 30.03S  
BUMPASS* FAIR 73 65 78 S5 30.04S  
FARMVILLE* CLEAR 72 65 79 SW3 30.04F  
CREWE* FAIR 71 71 100 CALM 30.06S  
FORT PICKETT* NOT AVBL  
CHASE CITY* MOCLDY 72 68 86 S6 30.07S  
CLARKSVILLE* FAIR 70 68 94 S8 30.07S  
SOUTH HILL* CLEAR 71 68 90 S10G17 30.14S  
LAWRENCEVILLE* FAIR 72 66 81 S8 30.08S  
EMPORIA* CLEAR 72 63 73 SE6 30.11R  

 
 
VAZ088>098-010500-  
SOUTHEAST VIRGINIA  
 
CITY SKY/WX TMP DP RH WIND PRES REMARKS
 
NORFOLK PTCLDY 76 68 76 S17G24 30.10S  
VIRGINIA BEACH MOCLDY 74 67 78 SW13 30.10S  
NORFOLK NAVAL PTCLDY 76 67 73 S8 30.11S  
WEST POINT* MOCLDY 77 65 65 S10 30.07F  
SALUDA* CLOUDY 76 69 77 S7 30.06S  
NEWPORT NEWS CLEAR 77 63 61 S13 30.08S  
LANGLEY AFB NOT AVBL  
FORT EUSTIS CLEAR 76 66 71 S9 30.06S  
WILLIAMSBURG* CLEAR 79 66 65 S6 30.09R  
HR EXEC AP* FAIR 73 66 78 S7 30.09R  
FRANKLIN* PTCLDY 73 63 71 S8 30.11R  
US460-WAKEFLD CLEAR 75 64 68 S8 30.08S  

 
 
VAZ020-022-025-037-045-010500-  
WEST CENTRAL AND SOUTHWEST VIRGINIA  
 
CITY SKY/WX TMP DP RH WIND PRES REMARKS
 
STAUNTON* CLEAR 70 62 75 S8 30.05S  
WAYNESBORO* CLEAR 70 64 80 S5 30.05F  
HOT SPRINGS VA CLOUDY 63 59 88 CALM 30.15S  
LYNCHBURG CLOUDY 69 64 84 S7 30.06F  
DANVILLE CLEAR 70 67 90 VRB3 30.06F  
SOUTH BOSTON* FAIR 71 67 89 S5 30.07S  
MARTINSVILLE MOCLDY 71 65 83 S3 30.08F  
ROANOKE PTCLDY 71 65 81 SE5 30.06F  
BLACKSBURG MOCLDY 67 62 84 CALM 30.11F  
DUBLIN* MOCLDY 70 61 72 S5 30.08F  
MARION* CLOUDY 71 61 72 CALM 30.09F  
HILLSVILLE* CLOUDY 67 65 94 S6 30.09F  
RICHLANDS* FAIR 69 58 68 S8 30.03F  
WISE* CLOUDY 70 54 56 S8 30.02F  
ABINGDON* CLOUDY 71 59 64 SW3 30.02F  

 
 
MDZ021>025-VAZ099-100-010500-  
SOUTHERN MARYLAND AND THE DELMARVA PENINSULA  
 
CITY SKY/WX TMP DP RH WIND PRES REMARKS
 
PATUXENT RIVER PTCLDY 75 68 78 S10 30.03F  
BAY BRIDGE APT CLEAR 61 57 88 E7 30.05F  
LEONARDTOWN PTCLDY 73 64 73 S3 30.05S  
DOVER MOCLDY 57 57 100 E9 30.08F FOG  
GEORGETOWN CLOUDY 58 57 97 E6 30.08F FOG  
EASTON CLEAR 61 58 90 E5 30.09F  
CAMBRIDGE N/A 64 61 88 E5 30.05F  
SALISBURY PTCLDY 68 66 93 E5 30.06S  
OCEAN CITY PTCLDY 71 67 87 SW8 30.08F  
WALLOPS ISLAND MOCLDY 70 68 93 S10 30.07F  
ACCOMACK* PTCLDY 73 69 86 S8 30.08S  

 
 
NCZ012>017-030>032-010500-  
NORTH CENTRAL AND EASTERN NORTH CAROLINA  
 
CITY SKY/WX TMP DP RH WIND PRES REMARKS
 
ROANOKE RAPIDS FAIR 70 63 78 S9 30.11R  
RALEIGH MOCLDY 71 66 84 S13G21 30.10F  
ELIZABETH CITY CLEAR 73 69 87 S17 30.13S  
AHOSKIE* N/A 70 65 84 S7 30.12S  
EDENTON* CLEAR 74 69 84 SW15G22 30.15R  
CURRITUCK* CLEAR 73 67 80 S7 30.13S  
KILL DEVIL HLS CLEAR 73 68 85 SW9G16 30.14S  
MANTEO CLEAR 73 69 88 SW17 30.16S  
CAPE HATTERAS CLEAR 74 69 85 SW10 30.18S HAZE  
TARBORO* NOT AVBL  
GOLDSBORO CLEAR 72 72 100 S8G17 30.11F  
WASHINGTON CLEAR 71 68 90 S9 30.16S  
GREENVILLE CLEAR 72 70 94 S14 30.16S  
NEW BERN CLEAR 70 69 97 SW7 30.17F  
WILMINGTON CLEAR 71 69 93 S7 30.16F  

 
 
VAZ048-010500-  
ELSEWHERE  
 
CITY SKY/WX TMP DP RH WIND PRES REMARKS
 
HARRISBURG PA MOCLDY 59 50 72 E13 30.05F  
BALTIMORE MOCLDY 61 59 93 E12 30.05F  
ANNAPOLIS CLEAR 63 61 93 NE7 30.04F  
ANDREWS AFB CLEAR 65 62 88 E6 30.03S  
PHILADELPHIA CLOUDY 52 49 89 E8 30.12F  
HENDERSON NC CLEAR 67 63 85 S10G16 30.09S  
GREENSBORO PTCLDY 72 67 84 S15 30.07F  
ROCKY MOUNT CLEAR 72 66 81 S10 30.12S  

 
 
VAZ100-010500-  
MARINE  
 
STATION/POSITION TIME TEMP WIND PRES WAVE SWELL
 
AIR SEA DIR/SP/G HT/PER HT/PER  
(UTC) (F) (DEG/KT/KT) (MB) (FT/S) (FT/S)  
CAPE MAY NJ 0348 55 60 90/ 6/ 9 1018.6S  
LEWES DE 0348 56 60 100/ 8/ 10 1018.7F  
15NM E FENWICK I 0250 62 58 190/ 16/ 17 1018.5 3/ 5  
OCEAN-CITY-INLET 0348 220/ 10/ 11 N/A  
WACHAPREAGUE VA 0348 72 75 210/ 12/ 15 1018.1F  
THOMAS POINT MD 0400 62 63 70/ 9/ 11 N/A  
GOOSES REEF MD 0400 70 60 140/ 8/ 12 1017.6 1  
COVE POINT MD 0348 67 190/ 11/ 12 1017.6F  
SOLOMONS ISLAND 0348 74 63 200/ 7/ 9 N/A  
BISHOPS HEAD MD 0348 74 78 180/ 16/ 19 1017.6F  
PINEY POINT MD 0348 200/ 6/ 7 N/A  
POTOMAC MD 0400 70 67 180/ 10/ 12 1016.4 1  
CAMBRIDGE MD 0342 64 71 N/A  
LEWISETTA VA 0348 78 74 210/ 12/ 15 1016.7F  
RAPPAHANNOCK LGT 0348 180/ 18/ 19 1018.9F  
STINGRAY PT 0350 70 200/ 8/ 8 1018.2S  
YORK RVR RNG VA 0348 76 210/ 17/ 18 1017.8S  
YORKTOWN VA 0348 78 69 200/ 9/ 13 1018.2R  
JAMESTOWN VA 0400 77 74 190/ 12/ 16 N/A 1  
DOMINION TERM VA 0348 75 190/ 13/ 15 1019.1R  
KIPTOPEKE VA 0348 69 190/ 10/ 12 N/A  
CHES BAY BRIDGE 0348 75 64 220/ 13/ 18 1018.9S  
CAPE HENRY VA 0348 75 190/ 11/ 16 N/A  
WILLOUBY STN VA 0348 76 200/ 16/ 19 1020.0S  
S CRANEY ISL VA 0348 76 200/ 12/ 15 1019.0S  
CAPE HENRY BUOY 0342 65 N/A 3/ 5  
1ST LANDING BUOY 0400 73 66 1019.2 1/ 3  
CAPE CHARLES BUO 0351 62 N/A 2/ 5  
64NM E OF VA BCH 0350 64 60 210/ 16/ 17 1020.6F 3/ 5  
DUCK PIER NC 0348 74 59 200/ 19/ 23 1019.9S  
44100 DUCK FRF 0335 62 N/A 2/ 5  
44056 DUCK FRF 0330 60 N/A 2/14  
OREGON INLET NC 0348 200/ 21/ 24 N/A  
HATTERAS NC 0348 73 76 210/ 9/ 12 1021.5F  
DIAMOND SHLS NC 0350 76 75 200/ 17/ 21 1021.7F 3/ 4 2/ 8  
CAPE LOOKOUT NC 0400 73 190/ 11/ 13 1021.5S  

 
 
 
CLICK HERE TO GO TO PREVIOUS BULLETINS.

The Nexlab VA Page
The Nexlab NC Page
The Nexlab MD Page Main Text Page